Ann Arbor, MI

7:57 AM EDT on June 28, 2017 (GMT -0400)
Ann Arbor Municipal

Weather History for KARB - October, 2014

Change the Weather History Date:

Monday, October 20, 2014

  Actual Average Record
Temperature  
Mean Temperature 51 °F -  
Max Temperature 57 °F 56 °F 75 °F (2003)
Min Temperature 45 °F 35 °F 26 °F (2002)
Degree Days  
Heating Degree Days 14    
Growing Degree Days 1 (Base 50)    
Moisture  
Dew Point 45 °F    
Average Humidity 77    
Maximum Humidity 92    
Minimum Humidity 67    
Precipitation  
Precipitation 0.23 in - - ()
Sea Level Pressure  
Sea Level Pressure 29.85 in    
Wind  
Wind Speed 7 mph (WSW)    
Max Wind Speed 15 mph    
Max Gust Speed 21 mph    
Visibility 9 miles    
Events Rain    
Averages and records for this station are not official NWS values.
T = Trace of Precipitation, MM = Missing Value Source: NWS Daily Summary

Daily Weather History Graph

Daily Weather History Graph

Search for Another Location

Airport or City:

Trip Planner

Search our weather history database for the weather conditions in past years. The results will help you decide how hot, cold, wet, or windy it might be!

Date:

Astronomy

Oct. 20, 2014 Rise Set
Actual Time 7:53 AM EDT 6:45 PM EDT
Civil Twilight 7:25 AM EDT 7:13 PM EDT
Nautical Twilight 6:52 AM EDT 7:46 PM EDT
Astronomical Twilight 6:19 AM EDT 8:18 PM EDT
Moon 4:37 AM EDT (10/20) 5:10 PM EDT (10/20)
Length of Visible Light 11h 48m
Length of Day
10h 51m
Waning Crescent, 10% of the Moon is Illuminated
Oct 20
Waning Crescent
Oct 23
New
Oct 30
First Quarter
Nov 6
Full
Nov 14
Last Quarter

Hourly Weather History & Observations

Time (EDT) Temp. Windchill Dew Point Humidity Pressure Visibility Wind Dir Wind Speed Gust Speed Precip Events Conditions
12:53 AM 45.0 °F 43.5 °F 36.0 °F 71% 29.98 in 10.0 mi South 3.5 mph - N/A   Overcast
1:53 AM 46.0 °F 43.9 °F 36.0 °F 68% 29.96 in 10.0 mi South 4.6 mph - N/A   Overcast
2:53 AM 46.9 °F - 37.0 °F 68% 29.94 in 10.0 mi SSW 8.1 mph - N/A   Overcast
3:53 AM 48.0 °F - 37.9 °F 68% 29.91 in 10.0 mi SW 9.2 mph - N/A   Overcast
4:53 AM 46.9 °F - 39.9 °F 77% 29.90 in 8.0 mi SSW 9.2 mph - 0.03 in Rain Light Rain
5:53 AM 46.9 °F - 41.0 °F 80% 29.89 in 10.0 mi SSW 5.8 mph - 0.00 in   Overcast
6:53 AM 46.9 °F - 42.1 °F 83% 29.88 in 10.0 mi SSW 8.1 mph - N/A   Overcast
7:53 AM 46.9 °F - 42.1 °F 83% 29.87 in 10.0 mi SW 9.2 mph - N/A   Overcast
8:53 AM 48.0 °F - 43.0 °F 83% 29.86 in 10.0 mi SW 9.2 mph - N/A   Overcast
9:53 AM 50.0 °F - 43.0 °F 77% 29.85 in 10.0 mi SSW 10.4 mph - N/A   Clear
10:53 AM 53.1 °F - 44.1 °F 71% 29.85 in 10.0 mi SW 12.7 mph 20.7 mph N/A   Mostly Cloudy
11:53 AM 54.0 °F - 45.0 °F 72% 29.83 in 10.0 mi SW 10.4 mph - N/A   Overcast
12:53 PM 53.1 °F - 45.0 °F 74% 29.82 in 5.0 mi WSW 9.2 mph - 0.03 in Rain Rain
1:01 PM 53.1 °F - 46.0 °F 77% 29.81 in 5.0 mi WSW 5.8 mph - 0.02 in Rain Light Rain
1:14 PM 54.0 °F - 46.9 °F 77% 29.80 in 10.0 mi West 3.5 mph - 0.03 in   Overcast
1:43 PM 55.0 °F - 48.0 °F 77% 29.79 in 10.0 mi Calm Calm - 0.03 in   Mostly Cloudy
1:53 PM 55.9 °F - 46.9 °F 72% 29.79 in 10.0 mi Calm Calm - 0.03 in   Overcast
2:53 PM 57.0 °F - 46.9 °F 69% 29.79 in 10.0 mi SW 3.5 mph - N/A   Overcast
3:16 PM 57.0 °F - 46.9 °F 69% 29.78 in 10.0 mi SW 6.9 mph - N/A   Mostly Cloudy
3:40 PM 57.0 °F - 46.9 °F 69% 29.78 in 10.0 mi WSW 8.1 mph - N/A   Overcast
3:53 PM 57.0 °F - 46.0 °F 67% 29.79 in 10.0 mi West 11.5 mph - N/A   Overcast
4:00 PM 55.9 °F - 46.0 °F 69% 29.79 in 10.0 mi West 15.0 mph - N/A   Overcast
4:53 PM 55.0 °F - 46.9 °F 74% 29.80 in 10.0 mi West 10.4 mph - N/A   Overcast
5:53 PM 54.0 °F - 46.9 °F 77% 29.81 in 10.0 mi WSW 8.1 mph - N/A   Overcast
6:53 PM 52.0 °F - 46.0 °F 80% 29.82 in 10.0 mi SW 4.6 mph - N/A   Overcast
7:53 PM 52.0 °F - 48.0 °F 86% 29.84 in 6.0 mi West 5.8 mph - 0.02 in Rain Light Rain
8:53 PM 51.1 °F - 48.0 °F 89% 29.85 in 4.0 mi SW 4.6 mph - 0.10 in Rain Light Rain
9:16 PM 51.1 °F - 48.9 °F 92% 29.85 in 4.0 mi WSW 3.5 mph - 0.01 in Rain Light Rain
9:42 PM 52.0 °F - 48.9 °F 89% 29.85 in 7.0 mi West 6.9 mph - 0.02 in   Overcast
9:53 PM 53.1 °F - 48.9 °F 86% 29.86 in 9.0 mi NW 9.2 mph - 0.02 in   Overcast
10:51 PM 53.6 °F - 48.2 °F 82% 29.87 in 10.0 mi NNW 6.9 mph - 0.00 in   Mostly Cloudy
10:53 PM 53.1 °F - 48.0 °F 83% 29.87 in 10.0 mi NNW 8.1 mph - 0.00 in   Mostly Cloudy
11:19 PM 51.1 °F - 45.0 °F 80% 29.88 in 10.0 mi NNW 12.7 mph - 0.00 in Rain Light Rain
11:53 PM 50.0 °F - 44.1 °F 80% 29.89 in 10.0 mi NNW 8.1 mph - 0.00 in Rain Light Rain